This is the latest recevied weather packets stored in our database for station/object DC4AT. If no packets are shown the sender has not sent any weather packets the latest 10 day(s).
| Time | Temp. | Humidity | Pressure | Rain* | Wind** | Luminosity | Snow |
|---|---|---|---|---|---|---|---|
| 1777698224 | 9.44° C | 80% | 1022.6 hPa | 0 mm | - | 21 W/m² | - |
| 1777697624 | 8.89° C | 79% | 1022.6 hPa | 0 mm | - | 19 W/m² | - |
| 1777697024 | 8.89° C | 78% | 1022.6 hPa | 0 mm | - | 18 W/m² | - |
| 1777696424 | 9.44° C | 78% | 1022.7 hPa | 0 mm | - | 14 W/m² | - |
| 1777695824 | 8.89° C | 78% | 1022.5 hPa | 0 mm | - | 12 W/m² | - |
| 1777695224 | 9.44° C | 77% | 1022.6 hPa | 0 mm | - | 9 W/m² | - |
| 1777694624 | 9.44° C | 77% | 1022.7 hPa | 0 mm | - | 7 W/m² | - |
| 1777694024 | 9.44° C | 76% | 1022.7 hPa | 0 mm | - | 0 W/m² | - |
| 1777693424 | 9.44° C | 75% | 1022.8 hPa | 0 mm | - | 0 W/m² | - |
| 1777692824 | 10° C | 74% | 1022.7 hPa | 0 mm | - | 0 W/m² | - |
| 1777692224 | 10° C | 74% | 1022.8 hPa | 0 mm | - | 0 W/m² | - |
| 1777691624 | 10.56° C | 73% | 1022.8 hPa | 0 mm | - | 0 W/m² | - |
| 1777691024 | 10.56° C | 73% | 1022.8 hPa | 0 mm | - | 0 W/m² | - |
| 1777690424 | 10.56° C | 73% | 1022.9 hPa | 0 mm | - | 0 W/m² | - |
| 1777689824 | 10.56° C | 73% | 1022.9 hPa | 0 mm | - | 0 W/m² | - |
| 1777689224 | 10° C | 74% | 1023.1 hPa | 0 mm | - | 0 W/m² | - |
| 1777688624 | 10° C | 75% | 1023 hPa | 0 mm | - | 0 W/m² | - |
| 1777688025 | 10° C | 75% | 1023.1 hPa | 0 mm | - | 0 W/m² | - |
| 1777687425 | 10° C | 75% | 1023.2 hPa | 0 mm | - | 0 W/m² | - |
| 1777686825 | 10° C | 75% | 1023.2 hPa | 0 mm | - | 0 W/m² | - |
| 1777686225 | 10° C | 75% | 1023.2 hPa | 0 mm | - | 0 W/m² | - |
| 1777685625 | 10° C | 75% | 1023.4 hPa | 0 mm | - | 0 W/m² | - |
| 1777685025 | 10.56° C | 74% | 1023.5 hPa | 0 mm | - | 0 W/m² | - |
| 1777684425 | 10.56° C | 73% | 1023.7 hPa | 0 mm | - | 0 W/m² | - |
| 1777683825 | 11.11° C | 71% | 1023.7 hPa | 0 mm | - | 0 W/m² | - |
* Rain latest hour (hover to see other rain measurements)
** Current wind speed in m/s (hover to see current wind gust speed)